KA0QOK Weather Reports


time (UTC)temp
F
wind
direction
speed
knots
gust
knots
rain 1hr
in
rain 24hr
in
rain mn
in
humidity
%
barometer
mb
20260503013106 62 229 6.1 18.2 0.00 0.00 0.00 36 1012.2
20260503011605 63 245 6.1 26.9 0.00 0.00 0.00 35 1012.2
20260503010059 63 264 7.0 20.9 0.00 0.00 0.00 34 1012.0
20260503004554 63 190 2.6 12.2 0.00 0.00 0.00 36 1011.9
20260503003152 63 180 3.5 14.8 0.00 0.00 0.00 35 1012.2
20260503001552 64 181 1.7 13.0 0.00 0.00 0.00 35 1012.1
20260503000100 64 198 7.0 19.1 0.00 0.00 0.00 33 1012.4
20260502234548 64 210 2.6 18.2 0.00 0.00 0.00 34 1012.5
20260502233050 64 182 2.6 22.6 0.00 0.00 0.00 33 1012.6
20260502231546 65 214 4.3 11.3 0.00 0.00 0.00 33 1012.6
20260502230142 64 199 4.3 8.7 0.00 0.00 0.00 32 1012.7
20260502224539 64 156 4.3 11.3 0.00 0.00 0.00 32 1013.0
20260502223037 64 254 4.3 10.4 0.00 0.00 0.00 32 1013.2
20260502221536 64 230 3.5 13.0 0.00 0.00 0.00 32 1013.3
20260502220035 64 200 6.1 19.1 0.00 0.00 0.00 31 1013.3
20260502214533 64 240 7.8 29.5 0.00 0.00 0.00 31 1013.7
20260502213002 65 238 8.7 19.1 0.00 0.00 0.00 31 1013.9
20260502211601 65 233 9.6 25.2 0.00 0.00 0.00 31 1014.1
20260502210055 64 204 12.2 27.8 0.00 0.00 0.00 32 1014.3
20260502204602 64 237 5.2 32.2 0.00 0.00 0.00 32 1014.6
20260502203051 64 200 13.0 26.9 0.00 0.00 0.00 30 1015.0
20260502201547 63 180 4.3 16.5 0.00 0.00 0.00 33 1015.4
20260502200046 63 239 8.7 24.3 0.00 0.00 0.00 32 1015.6
20260502194541 62 202 12.2 22.6 0.00 0.00 0.00 32 1016.1
20260502193036 61 192 7.0 20.0 0.00 0.00 0.00 33 1016.4
20260502191532 60 269 7.0 19.1 0.00 0.00 0.00 32 1016.7
20260502190103 60 230 4.3 19.1 0.00 0.00 0.00 33 1017.0
20260502184558 60 181 8.7 17.4 0.00 0.00 0.00 33 1017.3
20260502183052 59 154 8.7 20.9 0.00 0.00 0.00 33 1017.5
20260502181552 59 200 4.3 18.2 0.00 0.00 0.00 34 1017.9
20260502163026 55 212 5.2 11.3 0.00 0.00 0.00 37 1019.6
20260502161522 55 192 6.1 15.6 0.00 0.00 0.00 37 1019.8
20260502151508 52 355 2.6 8.7 0.00 0.00 0.00 44 1020.4
20260502123027 38 227 0.0 1.7 0.00 0.00 0.00 72 1021.1
20260502121517 36 227 0.0 0.0 0.00 0.00 0.00 73 1021.1
20260502114515 35 227 0.0 0.0 0.00 0.00 0.00 75 1021.1
20260502113014 34 227 0.0 0.0 0.00 0.00 0.00 74 1021.1
20260502111549 34 227 0.0 0.0 0.00 0.00 0.00 74 1020.9
20260502110042 34 228 0.0 0.0 0.00 0.00 0.00 74 1020.9
20260502104540 34 228 0.0 0.0 0.00 0.00 0.00 74 1020.8
20260502103039 34 228 0.0 0.0 0.00 0.00 0.00 74 1020.9
20260502101537 34 228 0.0 0.0 0.00 0.00 0.00 72 1020.9
20260502071512 37 228 0.0 0.0 0.00 0.00 0.00 66 1020.8
20260502070015 37 228 0.0 0.0 0.00 0.00 0.00 66 1020.8
20260502064515 37 228 0.0 0.0 0.00 0.00 0.00 67 1020.8
20260502063009 37 228 0.0 0.0 0.00 0.00 0.00 66 1020.9
20260502061505 37 228 0.0 0.0 0.00 0.00 0.00 65 1021.0
20260502060004 38 228 0.0 0.0 0.00 0.00 0.00 65 1021.0
20260502054534 38 228 0.0 0.0 0.00 0.00 0.00 64 1021.0
20260502053040 38 228 0.0 0.0 0.00 0.00 0.00 64 1021.0
20260502051601 38 228 0.0 0.0 0.00 0.00 0.00 64 1021.0
20260502050030 39 228 0.0 0.0 0.00 0.00 0.00 62 1021.0
20260502044529 39 228 0.0 0.0 0.00 0.00 0.00 60 1020.9
20260502043029 39 228 0.0 0.0 0.00 0.00 0.00 61 1020.9
20260502041529 40 228 0.0 0.0 0.00 0.00 0.00 58 1020.9
20260502040026 41 228 0.0 0.0 0.00 0.00 0.00 57 1021.0
20260502034526 41 228 0.0 0.0 0.00 0.00 0.00 55 1021.0
20260502033026 42 228 0.0 0.0 0.00 0.00 0.00 52 1021.0
20260502031522 43 228 0.0 0.0 0.00 0.00 0.00 49 1020.9
20260502030024 44 228 0.0 0.0 0.00 0.00 0.00 47 1021.0
20260502024520 45 228 0.0 0.0 0.00 0.00 0.00 45 1020.9
20260502023030 46 228 0.0 0.0 0.00 0.00 0.00 43 1020.9
20260502021550 47 228 0.0 0.0 0.00 0.00 0.00 40 1020.9
20260502020050 48 228 0.0 0.0 0.00 0.00 0.00 38 1020.6
20260502014519 49 228 0.0 0.9 0.00 0.00 0.00 35 1020.5